Year,Month,Day,Hour,Minute,Value (Times are PST for temperature in C)
2006,12,15,00,09,7.80
2006,12,15,00,10,7.80
2006,12,15,00,11,7.80
2006,12,15,00,12,7.80
2006,12,15,00,13,7.80
2006,12,15,00,14,7.80
2006,12,15,00,15,7.80
2006,12,15,00,16,7.80
2006,12,15,00,17,7.80
2006,12,15,00,18,8.30
2006,12,15,00,19,8.30
2006,12,15,00,20,8.30
2006,12,15,00,21,8.30
2006,12,15,00,22,8.30
2006,12,15,00,23,8.30
2006,12,15,00,24,8.30
2006,12,15,00,25,8.30
2006,12,15,00,26,7.40
2006,12,15,00,27,7.40
2006,12,15,00,29,7.40
2006,12,15,00,30,7.40
2006,12,15,00,31,7.40
2006,12,15,00,32,7.40
2006,12,15,00,33,7.40
2006,12,15,00,34,7.40
2006,12,15,00,35,7.40
2006,12,15,00,36,7.10
2006,12,15,00,37,7.10
2006,12,15,00,39,7.10
2006,12,15,00,41,7.10
2006,12,15,00,42,7.10
2006,12,15,00,44,7.10
2006,12,15,00,46,7.10
2006,12,15,00,47,7.10
2006,12,15,00,48,7.10
2006,12,15,00,49,6.40
2006,12,15,00,50,6.40
2006,12,15,00,52,6.40
2006,12,15,00,53,6.40
2006,12,15,00,54,6.40
2006,12,15,00,55,6.40
2006,12,15,00,56,6.40
2006,12,15,00,57,6.40
2006,12,15,00,58,6.30
2006,12,15,00,59,6.30
2006,12,15,01,00,6.30
2006,12,15,01,01,6.30
2006,12,15,01,02,6.30
2006,12,15,01,03,6.30
2006,12,15,01,05,6.30
2006,12,15,01,06,6.30
2006,12,15,01,07,6.30
2006,12,15,01,08,6.30
2006,12,15,01,10,6.30
2006,12,15,01,11,6.30
2006,12,15,01,12,6.30
2006,12,15,01,13,6.30
2006,12,15,01,14,6.30
2006,12,15,01,16,6.10
2006,12,15,01,17,6.10
2006,12,15,01,19,6.10
2006,12,15,01,20,6.10
2006,12,15,01,21,6.10
2006,12,15,01,22,6.10
2006,12,15,01,23,6.10
2006,12,15,01,24,6.10
2006,12,15,01,25,6.10
2006,12,15,01,26,6.10
2006,12,15,01,27,6.10
2006,12,15,01,28,6.10
2006,12,15,01,29,5.80
2006,12,15,01,30,5.80
2006,12,15,01,31,5.80
2006,12,15,01,32,5.80
2006,12,15,01,33,5.80
2006,12,15,01,34,5.80
2006,12,15,01,35,5.80
2006,12,15,01,36,5.80
2006,12,15,01,37,5.80
2006,12,15,01,38,6.00
2006,12,15,01,39,6.00
2006,12,15,01,40,6.00
2006,12,15,01,41,6.00
2006,12,15,01,42,6.00
2006,12,15,01,43,6.00
2006,12,15,01,44,6.00
2006,12,15,01,45,6.00
2006,12,15,01,46,5.70
2006,12,15,01,48,5.70
2006,12,15,01,50,5.70
2006,12,15,01,52,5.70
2006,12,15,01,53,5.70
2006,12,15,01,54,5.70
2006,12,15,01,55,5.70
2006,12,15,01,56,6.20
2006,12,15,01,57,6.20
2006,12,15,01,58,6.20
2006,12,15,01,59,6.20
2006,12,15,02,00,6.20
2006,12,15,02,01,6.20
2006,12,15,02,02,6.20
2006,12,15,02,03,6.20
2006,12,15,02,04,6.20
2006,12,15,02,05,6.20
2006,12,15,02,06,6.20
2006,12,15,02,07,6.20
2006,12,15,02,09,5.20
2006,12,15,02,11,5.20
2006,12,15,02,12,5.20
2006,12,15,02,14,5.20
2006,12,15,02,15,5.20
2006,12,15,02,16,5.20
2006,12,15,02,17,5.40
2006,12,15,02,18,5.40
2006,12,15,02,19,5.40
2006,12,15,02,20,5.40
2006,12,15,02,21,5.40
2006,12,15,02,22,5.40
2006,12,15,02,23,5.40
2006,12,15,02,25,5.40
2006,12,15,02,26,5.40
2006,12,15,02,27,5.40
2006,12,15,02,28,5.40
2006,12,15,02,29,5.40
2006,12,15,02,30,5.40
2006,12,15,02,31,5.40
2006,12,15,02,33,5.40
2006,12,15,02,34,5.40
2006,12,15,02,35,5.40
2006,12,15,13,51,5.40
2006,12,15,13,52,5.40
2006,12,15,13,53,5.40
2006,12,15,13,54,5.40
2006,12,15,13,55,5.40
2006,12,15,13,57,5.40
2006,12,15,13,58,5.40
2006,12,15,13,59,5.40
2006,12,15,14,00,5.40
2006,12,15,14,01,5.40
2006,12,15,14,02,5.40
2006,12,15,14,03,5.40
2006,12,15,14,04,5.40
2006,12,15,14,05,5.40
2006,12,15,14,06,5.40
2006,12,15,14,07,5.40
2006,12,15,14,08,5.40
2006,12,15,14,09,5.40
2006,12,15,14,10,5.40
2006,12,15,14,11,5.40
2006,12,15,14,12,5.40
2006,12,15,14,13,5.40
2006,12,15,14,14,5.40
2006,12,15,14,15,5.40
2006,12,15,14,16,5.40
2006,12,15,14,17,5.40
2006,12,15,14,18,5.40
2006,12,15,14,19,5.40
2006,12,15,14,20,5.40
2006,12,15,14,21,5.40
2006,12,15,14,23,5.40
2006,12,15,14,24,5.40
2006,12,15,14,25,5.40
2006,12,15,14,26,5.40
2006,12,15,14,27,5.40
2006,12,15,14,28,5.40
2006,12,15,14,30,5.40
2006,12,15,14,31,5.40
2006,12,15,14,32,5.40
2006,12,15,14,33,5.40
2006,12,15,14,34,5.40
2006,12,15,14,35,5.40
2006,12,15,14,36,5.40
2006,12,15,14,37,5.40
2006,12,15,14,38,5.40
2006,12,15,14,39,5.40
2006,12,15,14,40,5.40
2006,12,15,14,41,5.40
2006,12,15,14,42,5.40
2006,12,15,14,43,5.40
2006,12,15,14,44,5.40
2006,12,15,14,45,5.40
2006,12,15,14,46,5.40
2006,12,15,14,47,5.40
2006,12,15,14,48,5.40
2006,12,15,14,49,5.40
2006,12,15,14,51,5.40
2006,12,15,14,52,5.40
2006,12,15,14,53,5.40
2006,12,15,14,55,5.40
2006,12,15,14,56,5.40
2006,12,15,14,57,5.40
2006,12,15,14,59,5.40
2006,12,15,15,00,5.40
2006,12,15,15,01,5.40
2006,12,15,15,02,5.40
2006,12,15,15,03,5.40
2006,12,15,15,04,5.40
2006,12,15,15,06,5.40
2006,12,15,15,07,5.40
2006,12,15,15,09,5.40
2006,12,15,15,10,5.40
2006,12,15,15,11,5.40
2006,12,15,15,12,5.40
2006,12,15,15,14,5.40
2006,12,15,15,15,5.40
2006,12,15,15,17,5.40
2006,12,15,15,18,5.40
2006,12,15,15,19,5.40
2006,12,15,15,20,5.40
2006,12,15,15,21,5.40
2006,12,15,15,22,5.40
2006,12,15,15,23,5.40
2006,12,15,15,24,5.40
2006,12,15,15,25,5.40
2006,12,15,15,27,5.40
2006,12,15,15,28,5.40
2006,12,15,15,30,5.40
2006,12,15,15,31,5.40
2006,12,15,15,33,5.40
2006,12,15,15,34,5.40
2006,12,15,15,35,5.40
2006,12,15,15,36,5.40
2006,12,15,15,37,5.40
2006,12,15,15,38,5.40
2006,12,15,15,39,5.40
2006,12,15,15,40,5.40
2006,12,15,15,41,5.40
2006,12,15,15,42,5.40
2006,12,15,15,43,5.40
2006,12,15,15,45,5.40
2006,12,15,15,46,5.40
2006,12,15,15,48,5.40
2006,12,15,15,49,5.40
2006,12,15,15,50,5.40
2006,12,15,15,51,5.40
2006,12,15,15,52,5.40
2006,12,15,15,54,5.40
2006,12,15,15,55,5.40
2006,12,15,15,56,5.40
2006,12,15,15,58,5.40
2006,12,15,15,59,5.40
2006,12,15,16,01,5.40
2006,12,15,16,02,5.40
2006,12,15,16,04,5.40
2006,12,15,16,05,5.40
2006,12,15,16,06,5.40
2006,12,15,16,08,5.40
2006,12,15,16,10,5.40
2006,12,15,16,11,5.40
2006,12,15,16,12,5.40
2006,12,15,16,13,5.40
2006,12,15,16,14,5.40
2006,12,15,16,15,5.40
2006,12,15,16,16,5.40
2006,12,15,16,17,5.40
2006,12,15,16,18,5.40
2006,12,15,16,19,5.40
2006,12,15,16,20,5.40
2006,12,15,16,22,5.40
2006,12,15,16,23,5.40
2006,12,15,16,24,5.40
2006,12,15,16,25,5.40
2006,12,15,16,26,5.40
2006,12,15,16,27,5.40
2006,12,15,16,28,5.40
2006,12,15,16,29,5.40
2006,12,15,16,31,5.40
2006,12,15,16,32,5.40
2006,12,15,16,33,5.40
2006,12,15,16,35,5.40
2006,12,15,16,36,5.40
2006,12,15,16,37,5.40
2006,12,15,16,38,5.40
2006,12,15,16,39,5.40
2006,12,15,16,41,5.40
2006,12,15,16,42,5.40
2006,12,15,16,43,5.40
2006,12,15,16,45,5.40
2006,12,15,16,47,5.40
2006,12,15,16,48,5.40
2006,12,15,16,49,5.40
2006,12,15,16,50,5.40
2006,12,15,16,51,5.40
2006,12,15,16,53,5.40
2006,12,15,16,54,5.40
2006,12,15,16,55,5.40
2006,12,15,16,56,5.40
2006,12,15,16,57,5.40
2006,12,15,16,58,5.40
2006,12,15,16,59,5.40
2006,12,15,17,01,5.40
2006,12,15,17,02,5.40
2006,12,15,17,03,5.40
2006,12,15,17,04,5.40
2006,12,15,17,05,5.40
2006,12,15,17,06,5.40
2006,12,15,17,07,5.40
2006,12,15,17,08,5.40
2006,12,15,17,09,5.40
2006,12,15,17,10,5.40
2006,12,15,17,12,5.40
2006,12,15,17,13,5.40
2006,12,15,17,14,5.40
2006,12,15,17,15,5.40
2006,12,15,17,16,5.40
2006,12,15,17,17,5.40
2006,12,15,17,19,5.40
2006,12,15,17,20,5.40
2006,12,15,17,21,5.40
2006,12,15,17,22,5.40
2006,12,15,17,23,5.40
2006,12,15,17,24,5.40
2006,12,15,17,26,5.40
2006,12,15,17,27,5.40
2006,12,15,17,29,5.40
2006,12,15,17,30,5.40
2006,12,15,17,31,5.40
2006,12,15,17,32,5.40
2006,12,15,17,33,5.40
2006,12,15,17,34,5.40
2006,12,15,17,35,5.40
2006,12,15,17,36,5.40
2006,12,15,17,37,5.40
2006,12,15,17,38,5.40
2006,12,15,17,40,5.40
2006,12,15,17,41,5.40
2006,12,15,17,42,5.40
2006,12,15,17,44,5.40
2006,12,15,17,46,5.40
2006,12,15,17,47,5.40
2006,12,15,17,48,5.40
2006,12,15,17,49,5.40
2006,12,15,17,50,5.40
2006,12,15,17,51,5.40
2006,12,15,17,52,5.40
2006,12,15,17,54,5.40
2006,12,15,17,55,5.40
2006,12,15,17,56,5.40
2006,12,15,17,57,5.40
2006,12,15,17,59,5.40
2006,12,15,18,00,5.40
2006,12,15,18,01,5.40
2006,12,15,18,02,5.40
2006,12,15,18,03,5.40
2006,12,15,18,05,5.40
2006,12,15,18,06,5.40
2006,12,15,18,07,5.40
2006,12,15,18,08,5.40
2006,12,15,18,09,5.40
2006,12,15,18,10,5.40
2006,12,15,18,11,5.40
2006,12,15,18,12,5.40
2006,12,15,18,13,5.40
2006,12,15,18,14,5.40
2006,12,15,18,16,5.40
2006,12,15,18,17,5.40
2006,12,15,18,18,5.40
2006,12,15,18,19,5.40
2006,12,15,18,20,5.40
2006,12,15,18,21,5.40
2006,12,15,18,23,5.40
2006,12,15,18,24,5.40
2006,12,15,18,26,5.40
2006,12,15,18,27,5.40
2006,12,15,18,28,5.40
2006,12,15,18,29,5.40
2006,12,15,18,30,5.40
2006,12,15,18,31,5.40
2006,12,15,18,32,5.40
2006,12,15,18,33,5.40
2006,12,15,18,34,5.40
2006,12,15,18,35,5.40
2006,12,15,18,37,5.40
2006,12,15,18,39,5.40
2006,12,15,18,40,5.40
2006,12,15,18,42,5.40
2006,12,15,18,44,5.40
2006,12,15,18,45,5.40
2006,12,15,18,46,5.40
2006,12,15,18,47,5.40
2006,12,15,18,48,5.40
2006,12,15,18,50,5.40
2006,12,15,18,52,5.40
2006,12,15,18,53,5.40
2006,12,15,18,55,5.40
2006,12,15,18,56,5.40
2006,12,15,18,57,5.40
2006,12,15,18,58,5.40
2006,12,15,18,59,5.40
2006,12,15,19,00,5.40
2006,12,15,19,01,5.40
2006,12,15,19,02,5.40
2006,12,15,19,03,5.40
2006,12,15,19,04,5.40
2006,12,15,19,05,5.40
2006,12,15,19,07,5.40
2006,12,15,19,09,5.40
2006,12,15,19,10,5.40
2006,12,15,19,12,5.40
2006,12,15,19,14,5.40
2006,12,15,19,15,5.40
2006,12,15,19,16,5.40
2006,12,15,19,17,5.40
2006,12,15,19,18,5.40
2006,12,15,19,19,5.40
2006,12,15,19,20,5.40
2006,12,15,19,21,5.40
2006,12,15,19,22,5.40
2006,12,15,19,23,5.40
2006,12,15,19,24,5.40
2006,12,15,19,25,5.40
2006,12,15,19,26,5.40
2006,12,15,19,27,5.40
2006,12,15,19,28,5.40
2006,12,15,19,29,5.40
2006,12,15,19,30,5.40
2006,12,15,19,31,5.40
2006,12,15,19,32,5.40
2006,12,15,19,33,5.40
2006,12,15,19,34,5.40
2006,12,15,19,36,5.40
2006,12,15,19,37,5.40
2006,12,15,19,38,5.40
2006,12,15,19,39,5.40
2006,12,15,19,40,5.40
2006,12,15,19,41,5.40
2006,12,15,19,42,5.40
2006,12,15,19,43,5.40
2006,12,15,19,44,5.40
2006,12,15,19,45,5.40
2006,12,15,19,46,5.40
2006,12,15,19,47,5.40
2006,12,15,19,48,5.40
2006,12,15,19,49,5.40
2006,12,15,19,50,5.40
2006,12,15,19,51,5.40
2006,12,15,19,52,5.40
2006,12,15,19,53,5.40
2006,12,15,19,54,5.40
2006,12,15,19,55,5.40
2006,12,15,19,56,5.40
2006,12,15,19,57,5.40
2006,12,15,19,58,5.40
2006,12,15,19,59,5.40
2006,12,15,20,00,5.40
2006,12,15,20,01,5.40
2006,12,15,20,02,5.40
2006,12,15,20,03,5.40
2006,12,15,20,04,5.40
2006,12,15,20,05,5.40
2006,12,15,20,06,5.40
2006,12,15,20,08,5.40
2006,12,15,20,09,5.40
2006,12,15,20,10,5.40
2006,12,15,20,11,5.40
2006,12,15,20,12,5.40
2006,12,15,20,14,5.40
2006,12,15,20,15,5.40
2006,12,15,20,16,5.40
2006,12,15,20,17,5.40
2006,12,15,20,18,5.40
2006,12,15,20,19,5.40
2006,12,15,20,20,5.40
2006,12,15,20,21,5.40
2006,12,15,20,22,5.40
2006,12,15,20,23,5.40
2006,12,15,20,24,5.40
2006,12,15,20,25,5.40
2006,12,15,20,26,5.40
2006,12,15,20,27,5.40
2006,12,15,20,28,5.40
2006,12,15,20,29,5.40
2006,12,15,20,30,5.40
2006,12,15,20,31,5.40
2006,12,15,20,32,5.40
2006,12,15,20,33,5.40
2006,12,15,20,35,5.40
2006,12,15,20,36,5.40
2006,12,15,20,37,5.40
2006,12,15,20,38,5.40
2006,12,15,20,39,5.40
2006,12,15,20,40,5.40
2006,12,15,20,41,5.40
2006,12,15,20,42,5.40
2006,12,15,20,43,5.40
2006,12,15,20,44,5.40
2006,12,15,20,45,5.40
2006,12,15,20,46,5.40
2006,12,15,20,48,5.40
2006,12,15,20,49,5.40
2006,12,15,20,50,5.40
2006,12,15,20,51,5.40
2006,12,15,20,52,5.40
2006,12,15,20,53,5.40
2006,12,15,20,54,5.40
2006,12,15,20,55,5.40
2006,12,15,20,56,5.40
2006,12,15,20,57,5.40
2006,12,15,20,58,5.40
2006,12,15,20,59,5.40
2006,12,15,21,00,5.40
2006,12,15,21,02,5.40
2006,12,15,21,03,5.40
2006,12,15,21,04,5.40
2006,12,15,21,05,5.40
2006,12,15,21,06,5.40
2006,12,15,21,07,5.40
2006,12,15,21,08,5.40
2006,12,15,21,09,5.40
2006,12,15,21,10,5.40
2006,12,15,21,11,5.40
2006,12,15,21,12,5.40
2006,12,15,21,14,5.40
2006,12,15,21,15,5.40
2006,12,15,21,16,5.40
2006,12,15,21,17,5.40
2006,12,15,21,18,5.40
2006,12,15,21,19,5.40
2006,12,15,21,20,5.40
2006,12,15,21,22,5.40
2006,12,15,21,23,5.40
2006,12,15,21,24,5.40
2006,12,15,21,25,5.40
2006,12,15,21,26,5.40
2006,12,15,21,27,5.40
2006,12,15,21,28,5.40
2006,12,15,21,29,5.40
2006,12,15,21,30,5.40
2006,12,15,21,31,5.40
2006,12,15,21,32,5.40
2006,12,15,21,33,5.40
2006,12,15,21,35,5.40
2006,12,15,21,36,5.40
2006,12,15,21,37,5.40
2006,12,15,21,38,5.40
2006,12,15,21,39,5.40
2006,12,15,21,40,5.40
2006,12,15,21,41,5.40
2006,12,15,21,42,5.40
2006,12,15,21,43,5.40
2006,12,15,21,45,5.40
2006,12,15,21,46,5.40
2006,12,15,21,47,5.40
2006,12,15,21,48,5.40
2006,12,15,21,49,5.40
2006,12,15,21,50,5.40
2006,12,15,21,51,5.40
2006,12,15,21,52,5.40
2006,12,15,21,53,5.40
2006,12,15,21,54,5.40
2006,12,15,21,55,5.40
2006,12,15,21,56,5.40
2006,12,15,21,57,5.40
2006,12,15,21,58,5.40
2006,12,15,21,59,5.40
2006,12,15,22,00,5.40
2006,12,15,22,01,5.40
2006,12,15,22,02,5.40
2006,12,15,22,03,5.40
2006,12,15,22,04,5.40
2006,12,15,22,06,5.40
2006,12,15,22,07,5.40
2006,12,15,22,09,5.40
2006,12,15,22,10,5.40
2006,12,15,22,11,5.40
2006,12,15,22,12,5.40
2006,12,15,22,13,5.40
2006,12,15,22,14,5.40
2006,12,15,22,15,5.40
2006,12,15,22,16,5.40
2006,12,15,22,17,5.40
2006,12,15,22,18,5.40
2006,12,15,22,19,5.40
2006,12,15,22,20,5.40
2006,12,15,22,21,5.40
2006,12,15,22,22,5.40
2006,12,15,22,24,5.40
2006,12,15,22,25,5.40
2006,12,15,22,26,5.40
2006,12,15,22,27,5.40
2006,12,15,22,29,5.40
2006,12,15,22,30,5.40
2006,12,15,22,31,5.40
2006,12,15,22,32,5.40
2006,12,15,22,33,5.40
2006,12,15,22,34,5.40
2006,12,15,22,35,5.40
2006,12,15,22,36,5.40
2006,12,15,22,37,5.40
2006,12,15,22,38,5.40
2006,12,15,22,39,5.40
2006,12,15,22,40,5.40
2006,12,15,22,41,5.40
2006,12,15,22,42,5.40
2006,12,15,22,43,5.40
2006,12,15,22,44,5.40
2006,12,15,22,45,5.40
2006,12,15,22,46,5.40
2006,12,15,22,47,5.40
2006,12,15,22,48,5.40
2006,12,15,22,49,5.40
2006,12,15,22,50,5.40
2006,12,15,22,51,5.40
2006,12,15,22,52,5.40
2006,12,15,22,53,5.40
2006,12,15,22,54,5.40
2006,12,15,22,55,5.40
2006,12,15,22,56,5.40
2006,12,15,22,57,5.40
2006,12,15,22,58,5.40
2006,12,15,22,59,5.40
2006,12,15,23,00,5.40
2006,12,15,23,01,5.40
2006,12,15,23,02,5.40
2006,12,15,23,03,5.40
2006,12,15,23,05,5.40
2006,12,15,23,06,5.40
2006,12,15,23,07,5.40
2006,12,15,23,08,5.40
2006,12,15,23,09,5.40
2006,12,15,23,10,5.40
2006,12,15,23,11,5.40
2006,12,15,23,12,5.40
2006,12,15,23,13,5.40
2006,12,15,23,14,5.40
2006,12,15,23,15,5.40
2006,12,15,23,16,5.40
2006,12,15,23,17,5.40
2006,12,15,23,18,5.40
2006,12,15,23,19,5.40
2006,12,15,23,20,5.40
2006,12,15,23,21,5.40
2006,12,15,23,23,5.40
2006,12,15,23,24,5.40
2006,12,15,23,25,5.40
2006,12,15,23,26,5.40
2006,12,15,23,27,5.40
2006,12,15,23,28,5.40
2006,12,15,23,29,5.40
2006,12,15,23,30,5.40
2006,12,15,23,31,5.40
2006,12,15,23,32,5.40
2006,12,15,23,33,5.40
2006,12,15,23,34,5.40
2006,12,15,23,35,5.40
2006,12,15,23,37,5.40
2006,12,15,23,38,5.40
2006,12,15,23,39,5.40
2006,12,15,23,40,5.40
2006,12,15,23,41,5.40
2006,12,15,23,42,5.40
2006,12,15,23,43,5.40
2006,12,15,23,44,5.40
2006,12,15,23,45,5.40
2006,12,15,23,46,5.40
2006,12,15,23,47,5.40
2006,12,15,23,48,5.40
2006,12,15,23,49,5.40
2006,12,15,23,50,5.40
2006,12,15,23,51,5.40
2006,12,15,23,52,5.40
2006,12,15,23,53,5.40
2006,12,15,23,54,5.40
2006,12,15,23,55,5.40
2006,12,15,23,56,5.40
2006,12,15,23,57,5.40
2006,12,15,23,58,5.40
2006,12,15,23,59,5.40
